No particular awareness of the weather is required.    There are no Weather-warnings


Meteo18 Weather Cam more information Meteo18 Weather Cam


Thunder radar more information blitzortung!


Rain radar more information rain snow radar


Visit our other weather sites:

Template documentation
and downloads

And another site



Weather Underground History page Text

Daily Summary for May 18, 2017 Units:  English    Metric   Both
« Previous Day
Next Day »
Daily Weekly Monthly Yearly Custom
  High: Low: Average:
Temperature: TemperatureC °F 10.4 °F 15.9 °F
Dew Point: DewpointC °F 9.5 °F 13.9 °F
Humidity: Humidity % 65 % 88 %
Wind Speed: WindSpeedKMH mph 0.0 mph 5.4 mph
Wind Gust: WindSpeedGustKMH mph - -
Wind:- - SSW
Pressure: PressurehPa in 1007.3 in -
Precipitation: 23.1 in    
Historical Graphs
 
 
Tabular Data for May 18, 2017
Time Temperature Dew Point Pressure Wind Wind Speed Wind Gust Humidity Rainfall Rate (Hourly)
TemperatureC °F DewpointC °F PressurehPa in Calm     Humidity % HourlyPrecipMM in
00:02 18.4 °F 14.9 °F 1015.5 in SW 8.0 mph 17.7 mph 80 % 0.0 in
00:07 18.3 °F 15.0 °F 1015.5 in West 3.2 mph 12.9 mph 81 % 0.0 in
00:12 18.2 °F 15.1 °F 1015.5 in West 1.6 mph 11.3 mph 82 % 0.0 in
00:17 18.1 °F 15.0 °F 1015.5 in WSW 1.6 mph 11.3 mph 82 % 0.0 in
00:22 18.1 °F 15.2 °F 1015.8 in SW 3.2 mph 11.3 mph 83 % 0.0 in
00:32 18.1 °F 15.4 °F 1015.8 in SW 8.0 mph 8.0 mph 84 % 0.0 in
00:42 17.6 °F 15.6 °F 1016.1 in SSW 11.3 mph 12.9 mph 88 % 0.3 in
00:47 17.2 °F 15.5 °F 1016.1 in WSW 14.5 mph 17.7 mph 90 % 0.5 in
00:52 16.9 °F 15.4 °F 1015.8 in SSW 8.0 mph 17.7 mph 91 % 1.8 in
00:57 16.8 °F 15.5 °F 1015.8 in WSW 3.2 mph 17.7 mph 92 % 2.5 in
01:02 16.8 °F 15.7 °F 1015.8 in SW 8.0 mph 17.7 mph 93 % 3.0 in
01:07 16.7 °F 15.6 °F 1015.8 in SW 3.2 mph 14.5 mph 93 % 3.3 in
01:12 16.7 °F 15.6 °F 1015.5 in Calm   11.3 mph 93 % 3.3 in
01:22 16.7 °F 15.7 °F 1015.1 in SW 1.6 mph 8.0 mph 94 % 3.6 in
01:27 16.7 °F 15.7 °F 1015.5 in SW 3.2 mph 8.0 mph 94 % 3.6 in
01:32 16.7 °F 15.7 °F 1015.5 in SW 1.6 mph 8.0 mph 94 % 3.6 in
01:37 16.7 °F 15.7 °F 1015.5 in SW 9.7 mph 9.7 mph 94 % 3.6 in
01:42 16.7 °F 15.7 °F 1015.5 in WSW 4.8 mph 12.9 mph 94 % 3.3 in
01:47 16.7 °F 15.9 °F 1015.5 in SW 6.4 mph 12.9 mph 95 % 2.3 in
01:52 16.6 °F 15.8 °F 1015.5 in SW 4.8 mph 12.9 mph 95 % 1.5 in
01:57 16.5 °F 15.7 °F 1015.5 in SSE 6.4 mph 12.9 mph 95 % 0.8 in
02:02 16.5 °F 15.7 °F 1015.5 in SW 11.3 mph 14.5 mph 95 % 0.5 in
02:12 16.5 °F 15.7 °F 1015.5 in SW 8.0 mph 16.1 mph 95 % 0.3 in
02:17 16.5 °F 15.7 °F 1015.5 in SW 6.4 mph 16.1 mph 95 % 0.0 in
02:22 16.5 °F 15.7 °F 1015.5 in South 3.2 mph 14.5 mph 95 % 0.0 in
02:27 16.5 °F 15.7 °F 1015.5 in SSW 8.0 mph 14.5 mph 95 % 0.0 in
02:32 16.4 °F 15.6 °F 1015.5 in SSW 3.2 mph 11.3 mph 95 % 0.0 in
02:37 16.4 °F 15.6 °F 1015.5 in SSW 3.2 mph 11.3 mph 95 % 0.0 in
02:42 16.4 °F 15.6 °F 1015.1 in SW 6.4 mph 12.9 mph 95 % 0.3 in
02:47 16.3 °F 15.5 °F 1015.1 in SSW 9.7 mph 12.9 mph 95 % 0.3 in
02:52 16.3 °F 15.5 °F 1015.1 in SW 4.8 mph 14.5 mph 95 % 0.3 in
02:57 16.3 °F 15.5 °F 1015.1 in SW 11.3 mph 14.5 mph 95 % 0.5 in
03:02 16.2 °F 15.4 °F 1015.1 in SW 4.8 mph 14.5 mph 95 % 0.5 in
03:07 16.2 °F 15.4 °F 1015.1 in SSE 4.8 mph 14.5 mph 95 % 0.5 in
03:12 16.2 °F 15.4 °F 1015.1 in SSW 4.8 mph 14.5 mph 95 % 0.5 in
03:17 16.2 °F 15.6 °F 1015.1 in SW 3.2 mph 12.9 mph 96 % 0.5 in
03:22 16.2 °F 15.6 °F 1015.1 in South 3.2 mph 11.3 mph 96 % 0.5 in
03:27 16.2 °F 15.6 °F 1015.1 in SSW 1.6 mph 11.3 mph 96 % 0.8 in
03:32 16.1 °F 15.5 °F 1015.1 in WSW 4.8 mph 11.3 mph 96 % 0.8 in
03:37 16.1 °F 15.5 °F 1015.5 in West 6.4 mph 11.3 mph 96 % 1.0 in
03:42 16.1 °F 15.5 °F 1015.5 in SW 4.8 mph 11.3 mph 96 % 1.0 in
03:47 16.1 °F 15.5 °F 1015.1 in West 4.8 mph 11.3 mph 96 % 1.0 in
03:52 16.1 °F 15.3 °F 1015.1 in WSW 9.7 mph 11.3 mph 95 % 1.0 in
03:57 16.0 °F 15.2 °F 1015.1 in SW 1.6 mph 11.3 mph 95 % 0.8 in
04:02 16.0 °F 15.2 °F 1015.1 in SW 4.8 mph 11.3 mph 95 % 0.8 in
04:07 15.9 °F 15.1 °F 1015.1 in SW 6.4 mph 12.9 mph 95 % 0.8 in
04:12 15.9 °F 15.1 °F 1015.1 in Calm   12.9 mph 95 % 0.5 in
04:17 15.9 °F 15.1 °F 1015.1 in SSW 3.2 mph 12.9 mph 95 % 0.5 in
04:22 15.9 °F 15.1 °F 1015.1 in SW 6.4 mph 12.9 mph 95 % 0.5 in
04:27 15.9 °F 15.1 °F 1015.1 in WSW 1.6 mph 9.7 mph 95 % 0.5 in
04:32 15.9 °F 15.1 °F 1015.1 in WSW 1.6 mph 9.7 mph 95 % 0.3 in
04:37 15.9 °F 15.1 °F 1015.1 in Calm   9.7 mph 95 % 0.5 in
04:42 15.9 °F 15.1 °F 1015.1 in WNW 3.2 mph 6.4 mph 95 % 0.3 in
04:47 15.7 °F 14.7 °F 1015.1 in West 4.8 mph 6.4 mph 94 % 0.3 in
04:52 15.5 °F 14.5 °F 1015.1 in WNW 6.4 mph 6.4 mph 94 % 0.3 in
04:57 15.4 °F 14.4 °F 1015.1 in West 1.6 mph 9.7 mph 94 % 0.3 in
05:02 15.3 °F 14.3 °F 1015.1 in Calm   9.7 mph 94 % 0.3 in
05:12 15.3 °F 14.3 °F 1015.1 in Calm   9.7 mph 94 % 0.5 in
05:17 15.3 °F 14.3 °F 1015.1 in Calm   4.8 mph 94 % 0.5 in
05:22 15.3 °F 14.3 °F 1015.1 in Calm   4.8 mph 94 % 0.5 in
05:32 15.3 °F 14.3 °F 1015.1 in Calm   1.6 mph 94 % 0.5 in
05:37 15.2 °F 14.2 °F 1015.1 in Calm   1.6 mph 94 % 0.5 in
05:42 15.1 °F 14.1 °F 1015.1 in WNW 1.6 mph 1.6 mph 94 % 0.5 in
05:47 15.1 °F 14.0 °F 1015.1 in SW 1.6 mph 4.8 mph 93 % 0.8 in
05:52 15.0 °F 13.9 °F 1015.1 in Calm   4.8 mph 93 % 0.8 in
06:02 14.8 °F 13.7 °F 1015.1 in Calm   4.8 mph 93 % 1.0 in
06:12 14.8 °F 13.7 °F 1015.1 in Calm   3.2 mph 93 % 1.0 in
06:17 14.8 °F 13.7 °F 1015.1 in Calm   1.6 mph 93 % 1.0 in
06:22 14.9 °F 13.8 °F 1015.1 in Calm   1.6 mph 93 % 1.0 in
06:32 14.9 °F 13.9 °F 1015.1 in Calm     94 % 0.8 in
06:37 15.0 °F 14.0 °F 1015.1 in Calm     94 % 0.5 in
06:42 15.0 °F 14.0 °F 1015.1 in Calm     94 % 0.5 in
06:47 14.9 °F 13.9 °F 1015.1 in SW 1.6 mph 6.4 mph 94 % 0.5 in
06:57 14.7 °F 13.7 °F 1015.1 in SSW 3.2 mph 6.4 mph 94 % 0.5 in
07:02 14.6 °F 13.6 °F 1015.1 in SSW 1.6 mph 6.4 mph 94 % 0.5 in
07:12 14.6 °F 13.8 °F 1015.1 in Calm   6.4 mph 95 % 0.8 in
07:17 14.6 °F 13.8 °F 1015.1 in Calm   4.8 mph 95 % 1.3 in
07:22 14.7 °F 13.9 °F 1015.1 in Calm   4.8 mph 95 % 1.5 in
07:32 14.7 °F 13.9 °F 1015.1 in Calm     95 % 1.5 in
07:42 14.6 °F 13.8 °F 1015.1 in Calm     95 % 1.8 in
07:52 14.6 °F 13.8 °F 1015.1 in Calm     95 % 1.8 in
07:57 14.6 °F 13.8 °F 1014.8 in Calm     95 % 2.0 in
08:02 14.6 °F 13.8 °F 1014.8 in Calm     95 % 2.3 in
08:12 14.6 °F 13.8 °F 1015.1 in Calm     95 % 2.3 in
08:17 14.6 °F 13.8 °F 1014.8 in Calm     95 % 2.3 in
08:27 14.6 °F 13.8 °F 1015.1 in Calm     95 % 2.3 in
08:32 14.6 °F 13.8 °F 1015.1 in Calm     95 % 2.3 in
08:37 14.6 °F 13.8 °F 1015.1 in Calm     95 % 2.3 in
08:47 14.7 °F 14.1 °F 1015.1 in Calm     96 % 2.3 in
08:52 14.8 °F 14.2 °F 1015.1 in Calm     96 % 2.3 in
09:02 14.7 °F 13.9 °F 1015.1 in Calm     95 % 3.0 in
09:12 14.6 °F 14.0 °F 1015.1 in Calm     96 % 3.0 in
09:17 14.7 °F 14.1 °F 1014.8 in Calm   1.6 mph 96 % 3.0 in
09:22 14.8 °F 14.2 °F 1014.8 in Calm   1.6 mph 96 % 3.0 in
09:32 14.9 °F 14.3 °F 1014.8 in Calm     96 % 2.8 in
09:42 15.0 °F 14.4 °F 1014.8 in Calm     96 % 2.5 in
09:47 15.1 °F 14.5 °F 1014.8 in Calm     96 % 2.3 in
09:52 15.1 °F 14.5 °F 1014.8 in Calm     96 % 2.3 in
10:02 15.1 °F 14.5 °F 1014.8 in Calm     96 % 1.5 in
10:12 15.1 °F 14.5 °F 1014.8 in Calm   3.2 mph 96 % 0.5 in
10:17 15.2 °F 14.6 °F 1014.8 in Calm   3.2 mph 96 % 0.3 in
10:22 15.1 °F 14.5 °F 1014.4 in Calm   1.6 mph 96 % 0.3 in
10:32 15.1 °F 14.5 °F 1014.4 in Calm   3.2 mph 96 % 0.0 in
10:42 15.2 °F 14.6 °F 1014.4 in Calm   4.8 mph 96 % 0.0 in
10:47 15.4 °F 14.8 °F 1014.4 in Calm   3.2 mph 96 % 0.0 in
10:52 15.6 °F 14.8 °F 1014.4 in Calm   3.2 mph 95 % 0.0 in
10:57 15.5 °F 14.7 °F 1014.4 in Calm   3.2 mph 95 % 0.0 in
11:02 15.7 °F 14.9 °F 1014.4 in Calm   3.2 mph 95 % 0.0 in
11:12 15.9 °F 14.9 °F 1014.1 in Calm   3.2 mph 94 % 0.0 in
11:17 15.9 °F 14.9 °F 1014.1 in ENE 3.2 mph 3.2 mph 94 % 0.0 in
11:22 15.9 °F 14.8 °F 1014.1 in Calm   4.8 mph 93 % 0.0 in
11:32 16.1 °F 14.8 °F 1013.8 in Calm   4.8 mph 92 % 0.0 in
11:42 16.2 °F 14.7 °F 1013.8 in ENE 1.6 mph 4.8 mph 91 % 0.0 in
11:52 16.4 °F 14.9 °F 1013.8 in ENE 1.6 mph 4.8 mph 91 % 0.0 in
12:02 16.9 °F 15.4 °F 1013.4 in South 1.6 mph 6.4 mph 91 % 0.0 in
12:07 17.3 °F 15.3 °F 1013.4 in Calm   4.8 mph 88 % 0.0 in
12:12 17.4 °F 15.4 °F 1013.4 in ENE 1.6 mph 4.8 mph 88 % 0.0 in
12:17 17.4 °F 15.2 °F 1013.4 in Calm   4.8 mph 87 % 0.0 in
12:22 17.4 °F 15.4 °F 1013.1 in ENE 1.6 mph 3.2 mph 88 % 0.0 in
12:32 17.4 °F 15.6 °F 1013.1 in ENE 6.4 mph 6.4 mph 89 % 0.0 in
12:42 17.4 °F 15.7 °F 1013.1 in SE 3.2 mph 8.0 mph 90 % 0.0 in
12:47 17.8 °F 16.0 °F 1013.1 in East 3.2 mph 8.0 mph 89 % 0.0 in
12:52 17.9 °F 15.7 °F 1012.8 in ENE 6.4 mph 8.0 mph 87 % 0.0 in
12:57 18.2 °F 16.4 °F 1012.8 in NE 3.2 mph 8.0 mph 89 % 0.0 in
13:02 18.4 °F 16.2 °F 1012.8 in NNE 9.7 mph 9.7 mph 87 % 0.0 in
13:07 18.6 °F 16.4 °F 1012.8 in SSW 3.2 mph 12.9 mph 87 % 0.0 in
13:12 18.8 °F 16.2 °F 1012.8 in SE 4.8 mph 12.9 mph 85 % 0.0 in
13:17 18.9 °F 16.3 °F 1012.4 in ESE 4.8 mph 12.9 mph 85 % 0.0 in
13:22 19.1 °F 16.3 °F 1012.4 in ESE 8.0 mph 8.0 mph 84 % 0.0 in
13:27 19.1 °F 16.0 °F 1012.4 in ENE 3.2 mph 9.7 mph 82 % 0.0 in
13:32 19.2 °F 16.1 °F 1012.4 in East 3.2 mph 9.7 mph 82 % 0.0 in
13:42 19.3 °F 16.5 °F 1012.1 in ENE 6.4 mph 11.3 mph 84 % 0.0 in
13:47 19.6 °F 16.8 °F 1011.7 in East 4.8 mph 12.9 mph 84 % 0.0 in
13:52 20.1 °F 16.9 °F 1011.7 in ENE 9.7 mph 12.9 mph 82 % 0.0 in
13:57 19.9 °F 16.5 °F 1011.7 in SSE 3.2 mph 14.5 mph 81 % 0.0 in
14:02 20.2 °F 16.6 °F 1011.4 in NE 4.8 mph 14.5 mph 80 % 0.0 in
14:07 20.2 °F 16.6 °F 1011.4 in ENE 3.2 mph 16.1 mph 80 % 0.0 in
14:12 20.7 °F 16.7 °F 1011.1 in ESE 1.6 mph 9.7 mph 78 % 0.0 in
14:17 21.1 °F 16.7 °F 1011.1 in ENE 4.8 mph 12.9 mph 76 % 0.0 in
14:22 21.2 °F 16.2 °F 1011.1 in East 1.6 mph 12.9 mph 73 % 0.0 in
14:27 21.4 °F 16.4 °F 1011.1 in SW 6.4 mph 12.9 mph 73 % 0.0 in
14:32 21.7 °F 16.4 °F 1011.1 in ENE 6.4 mph 12.9 mph 72 % 0.0 in
14:37 21.6 °F 16.1 °F 1010.7 in SE 4.8 mph 12.9 mph 71 % 0.0 in
14:42 21.7 °F 16.9 °F 1010.7 in ESE 4.8 mph 16.1 mph 74 % 0.0 in
14:47 21.6 °F 15.9 °F 1010.7 in ESE 3.2 mph 16.1 mph 70 % 0.0 in
14:52 21.7 °F 17.3 °F 1010.4 in ESE 6.4 mph 16.1 mph 76 % 0.0 in
15:02 21.9 °F 16.4 °F 1010.4 in NE 3.2 mph 14.5 mph 71 % 0.0 in
15:07 22.2 °F 16.9 °F 1010.4 in NE 6.4 mph 14.5 mph 72 % 0.0 in
15:12 22.2 °F 16.9 °F 1010.4 in ESE 4.8 mph 14.5 mph 72 % 0.0 in
15:17 22.1 °F 15.9 °F 1010.0 in SSW 6.4 mph 14.5 mph 68 % 0.0 in
15:22 22.2 °F 15.5 °F 1010.0 in SE 6.4 mph 16.1 mph 66 % 0.0 in
15:27 21.9 °F 16.0 °F 1010.0 in ENE 3.2 mph 16.1 mph 69 % 0.0 in
15:32 21.9 °F 16.0 °F 1010.0 in SSW 11.3 mph 16.1 mph 69 % 0.0 in
15:37 22.1 °F 16.4 °F 1010.0 in SE 4.8 mph 16.1 mph 70 % 0.0 in
15:42 22.2 °F 16.2 °F 1009.7 in SSE 3.2 mph 14.5 mph 69 % 0.0 in
15:47 22.3 °F 16.3 °F 1009.7 in ESE 8.0 mph 16.1 mph 69 % 0.0 in
15:57 22.2 °F 16.5 °F 1009.4 in SE 1.6 mph 16.1 mph 70 % 0.0 in
16:02 22.2 °F 15.3 °F 1009.4 in South 4.8 mph 16.1 mph 65 % 0.0 in
16:12 21.7 °F 14.8 °F 1009.4 in ESE 4.8 mph 20.9 mph 65 % 0.0 in
16:17 21.6 °F 15.7 °F 1009.0 in SE 9.7 mph 17.7 mph 69 % 0.0 in
16:22 21.8 °F 15.9 °F 1009.0 in WSW 8.0 mph 17.7 mph 69 % 0.0 in
16:27 21.7 °F 15.3 °F 1009.0 in SE 11.3 mph 17.7 mph 67 % 0.0 in
16:32 21.8 °F 16.1 °F 1008.7 in SSE 1.6 mph 17.7 mph 70 % 0.0 in
16:37 21.7 °F 15.1 °F 1008.4 in ESE 11.3 mph 19.3 mph 66 % 0.0 in
16:42 21.8 °F 15.6 °F 1008.4 in SE 4.8 mph 22.5 mph 68 % 0.0 in
16:47 21.8 °F 16.1 °F 1008.4 in SSE 4.8 mph 22.5 mph 70 % 0.0 in
16:52 21.9 °F 16.0 °F 1008.4 in ESE 8.0 mph 22.5 mph 69 % 0.0 in
16:57 21.8 °F 15.6 °F 1008.0 in SSE 3.2 mph 16.1 mph 68 % 0.0 in
17:02 21.7 °F 15.5 °F 1008.0 in SE 3.2 mph 16.1 mph 68 % 0.0 in
17:07 21.5 °F 15.1 °F 1007.7 in SE 9.7 mph 16.1 mph 67 % 0.0 in
17:12 21.3 °F 14.9 °F 1007.7 in ESE 4.8 mph 20.9 mph 67 % 0.0 in
17:17 21.2 °F 14.4 °F 1007.3 in ESE 8.0 mph 22.5 mph 65 % 0.0 in
17:22 21.0 °F 14.4 °F 1007.7 in SSE 3.2 mph 22.5 mph 66 % 0.0 in
17:32 19.5 °F 15.4 °F 1009.0 in West 32.2 mph 32.2 mph 77 % 0.0 in
17:37 17.7 °F 14.8 °F 1009.4 in West 19.3 mph 38.6 mph 83 % 0.0 in
17:42 16.0 °F 13.8 °F 1009.4 in West 14.5 mph 53.1 mph 87 % 3.0 in
17:47 15.3 °F 13.7 °F 1009.7 in West 14.5 mph 53.1 mph 90 % 3.8 in
17:57 14.5 °F 13.0 °F 1010.0 in West 14.5 mph 27.4 mph 91 % 5.1 in
18:02 14.3 °F 12.9 °F 1010.0 in WNW 19.3 mph 27.4 mph 91 % 5.3 in
18:07 14.1 °F 12.7 °F 1010.0 in West 17.7 mph 27.4 mph 91 % 5.3 in
18:22 13.7 °F 12.3 °F 1010.7 in WNW 11.3 mph 32.2 mph 91 % 5.6 in
18:32 13.6 °F 12.2 °F 1010.7 in West 17.7 mph 30.6 mph 91 % 5.6 in
18:42 13.6 °F 12.0 °F 1010.4 in West 12.9 mph 27.4 mph 90 % 5.6 in
18:47 13.6 °F 12.0 °F 1010.4 in WNW 8.0 mph 29.0 mph 90 % 1.8 in
18:52 13.6 °F 11.8 °F 1010.7 in NW 8.0 mph 29.0 mph 89 % 1.3 in
18:57 13.5 °F 11.9 °F 1011.1 in WNW 4.8 mph 29.0 mph 90 % 0.5 in
19:02 13.5 °F 11.9 °F 1011.1 in WNW 8.0 mph 29.0 mph 90 % 0.3 in
19:07 13.4 °F 11.8 °F 1011.1 in West 11.3 mph 30.6 mph 90 % 0.3 in
19:12 13.4 °F 11.8 °F 1011.4 in SW 6.4 mph 24.1 mph 90 % 0.0 in
19:17 13.4 °F 11.8 °F 1011.4 in West 9.7 mph 24.1 mph 90 % 0.0 in
19:22 13.4 °F 11.8 °F 1011.4 in WNW 1.6 mph 24.1 mph 90 % 0.0 in
19:27 13.3 °F 11.7 °F 1011.7 in NW 9.7 mph 17.7 mph 90 % 0.0 in
19:37 13.2 °F 11.4 °F 1012.1 in WSW 17.7 mph 20.9 mph 89 % 0.0 in
19:42 13.0 °F 11.2 °F 1012.1 in West 9.7 mph 27.4 mph 89 % 0.0 in
19:47 12.9 °F 11.0 °F 1012.4 in WNW 12.9 mph 27.4 mph 88 % 0.0 in
19:57 12.6 °F 10.7 °F 1012.4 in WSW 6.4 mph 24.1 mph 88 % 0.0 in
20:02 12.6 °F 10.7 °F 1012.8 in WNW 11.3 mph 24.1 mph 88 % 0.0 in
20:12 12.4 °F 10.6 °F 1012.8 in West 4.8 mph 16.1 mph 89 % 0.3 in
20:22 12.3 °F 10.7 °F 1012.8 in WNW 9.7 mph 14.5 mph 90 % 0.5 in
20:27 12.1 °F 10.5 °F 1012.8 in WNW 9.7 mph 22.5 mph 90 % 0.5 in
20:32 12.0 °F 10.2 °F 1013.1 in WSW 9.7 mph 22.5 mph 89 % 0.5 in
20:37 11.9 °F 10.1 °F 1013.4 in WSW 12.9 mph 22.5 mph 89 % 0.5 in
20:47 11.8 °F 10.0 °F 1013.4 in West 16.1 mph 20.9 mph 89 % 0.8 in
20:52 11.6 °F 10.0 °F 1013.4 in WNW 16.1 mph 20.9 mph 90 % 0.8 in
20:57 11.4 °F 10.0 °F 1013.4 in WNW 6.4 mph 20.9 mph 91 % 1.0 in
21:02 11.3 °F 10.0 °F 1013.4 in West 3.2 mph 20.9 mph 92 % 1.0 in
21:07 11.3 °F 10.2 °F 1013.4 in SW 8.0 mph 17.7 mph 93 % 1.0 in
21:12 11.2 °F 10.1 °F 1013.4 in West 12.9 mph 16.1 mph 93 % 0.8 in
21:17 11.3 °F 10.0 °F 1013.4 in West 4.8 mph 25.7 mph 92 % 0.8 in
21:22 11.3 °F 10.0 °F 1013.8 in West 8.0 mph 25.7 mph 92 % 0.5 in
21:27 11.3 °F 10.0 °F 1013.8 in SW 3.2 mph 25.7 mph 92 % 0.5 in
21:32 11.4 °F 10.3 °F 1013.8 in WSW 6.4 mph 25.7 mph 93 % 0.5 in
21:37 11.4 °F 10.3 °F 1014.1 in SW 8.0 mph 14.5 mph 93 % 0.5 in
21:42 11.4 °F 10.3 °F 1014.1 in WSW 8.0 mph 16.1 mph 93 % 0.5 in
21:47 11.4 °F 10.3 °F 1014.1 in WSW 9.7 mph 17.7 mph 93 % 0.5 in
21:52 11.4 °F 10.3 °F 1014.4 in WSW 11.3 mph 19.3 mph 93 % 0.5 in
21:57 11.3 °F 10.2 °F 1014.4 in WNW 9.7 mph 19.3 mph 93 % 0.5 in
22:02 11.2 °F 10.1 °F 1014.4 in WSW 14.5 mph 19.3 mph 93 % 0.8 in
22:12 11.0 °F 9.9 °F 1014.8 in West 8.0 mph 20.9 mph 93 % 0.8 in
22:17 10.9 °F 9.8 °F 1014.8 in SW 3.2 mph 20.9 mph 93 % 1.0 in
22:22 10.9 °F 9.8 °F 1014.8 in WSW 6.4 mph 24.1 mph 93 % 1.0 in
22:27 10.9 °F 9.8 °F 1015.1 in WSW 9.7 mph 24.1 mph 93 % 1.3 in
22:32 10.9 °F 9.8 °F 1014.8 in SW 9.7 mph 24.1 mph 93 % 1.5 in
22:37 10.9 °F 9.8 °F 1014.8 in WSW 14.5 mph 20.9 mph 93 % 1.5 in
22:42 10.9 °F 9.8 °F 1014.8 in West 11.3 mph 25.7 mph 93 % 1.8 in
22:52 10.9 °F 10.0 °F 1015.1 in WSW 9.7 mph 25.7 mph 94 % 1.8 in
23:02 10.7 °F 9.6 °F 1015.5 in South 6.4 mph 19.3 mph 93 % 1.5 in
23:07 10.7 °F 9.6 °F 1015.5 in SW 16.1 mph 20.9 mph 93 % 1.5 in
23:12 10.6 °F 9.7 °F 1015.5 in SSW 6.4 mph 22.5 mph 94 % 1.3 in
23:17 10.6 °F 9.7 °F 1015.1 in West 9.7 mph 22.5 mph 94 % 1.5 in
23:22 10.6 °F 9.7 °F 1015.5 in SW 11.3 mph 22.5 mph 94 % 1.3 in
23:27 10.6 °F 9.7 °F 1015.5 in SW 6.4 mph 17.7 mph 94 % 1.0 in
23:32 10.5 °F 9.6 °F 1015.5 in SSW 9.7 mph 17.7 mph 94 % 1.3 in
23:37 10.5 °F 9.6 °F 1015.5 in SW 24.1 mph 24.1 mph 94 % 1.0 in
23:42 10.4 °F 9.5 °F 1015.5 in SW 8.0 mph 24.1 mph 94 % 0.8 in
23:47 10.4 °F 9.5 °F 1015.5 in WSW 4.8 mph 24.1 mph 94 % 1.0 in
23:52 10.4 °F 9.5 °F 1015.5 in West 16.1 mph 24.1 mph 94 % 0.8 in
23:57 10.4 °F 9.5 °F 1015.1 in WSW 12.9 mph 24.1 mph 94 % 1.0 in
Meteo18
Compliments of Weather Underground - 4 mb

Script developed by  Jim McMurry - jmcmurry@mwt.net Adapted for the template by  Wim van der Kuil - Leuven-Template.eu

You find our weather info also at:

European Weather Network

Weather Underground

Equipment we use:

Weather-station
Davis Vue

Weather-program
Meteobridge

Weather-server
Raspberry PI 2 B+

Provider
1 and 1

Davis Vue

Meteobridge

Raspberry PI 2 B+

1 and 1